Change the Weather History Date:

Friday, November 9, 2012

  Actual Average Record
Temperature  
Mean Temperature 41 °F 46 °F  
Max Temperature 56 °F 56 °F 75 °F (1975)
Min Temperature 25 °F 35 °F 17 °F (1991)
Degree Days  
Heating Degree Days 24 19  
Month to date heating degree days 232 162  
Since 1 July heating degree days 754 649  
Cooling Degree Days 0 0  
Month to date cooling degree days 0 0  
Year to date cooling degree days 980 768  
Moisture  
Dew Point 31 °F    
Average Humidity 68    
Maximum Humidity 92    
Minimum Humidity 43    
Precipitation  
Precipitation 0.00 in 0.09 in 1.43 in (1962)
Month to date precipitation 0.02 0.87  
Year to date precipitation 30.17 33.01  
Sea Level Pressure  
Sea Level Pressure 30.22 in    
Wind  
Wind Speed 2 mph (SSW)    
Max Wind Speed 12 mph    
Max Gust Speed 24 mph    
Visibility 9 miles    
Events      
T = Trace of Precipitation, MM = Missing Value Source: NWS Daily Summary

Daily Weather History Graph

Daily Weather History Graph

Search for Another Location

Airport or City:

Trip Planner

Search our weather history database for the weather conditions in past years. The results will help you decide how hot, cold, wet, or windy it might be!

Date:

Astronomy

Nov. 09, 2012 Rise Set
Actual Time 7:06 AM EST 5:16 PM EST
Civil Twilight 6:37 AM EST 5:44 PM EST
Nautical Twilight 6:05 AM EST 6:17 PM EST
Astronomical Twilight 5:33 AM EST 6:48 PM EST
Moon 2:03 AM EST (11/9) 2:28 PM EST (11/9)
Length of Visible Light 11h 07m
Length of Day
10h 09m
Waning Crescent, 23% of the Moon is Illuminated
Nov 9
Waning Crescent
Nov 13
New
Nov 20
First Quarter
Nov 28
Full
Dec 6
Last Quarter

Hourly Weather History & Observations

Time (EST) Temp. Windchill Dew Point Humidity Pressure Visibility Wind Dir Wind Speed Gust Speed Precip Events Conditions
12:53 AM 28.9 °F - 26.1 °F 89% 30.20 in 7.0 mi Calm Calm - N/A   Clear
1:53 AM 28.0 °F - 26.1 °F 92% 30.20 in 7.0 mi Calm Calm - N/A   Clear
2:53 AM 27.0 °F - 24.1 °F 89% 30.21 in 8.0 mi Calm Calm - N/A   Clear
3:53 AM 28.0 °F - 25.0 °F 88% 30.22 in 6.0 mi Calm Calm - N/A   Clear
4:53 AM 27.0 °F - 24.1 °F 89% 30.24 in 7.0 mi Calm Calm - N/A   Clear
5:53 AM 26.1 °F - 24.1 °F 92% 30.25 in 6.0 mi Calm Calm - N/A   Clear
6:53 AM 26.1 °F - 23.0 °F 88% 30.26 in 7.0 mi Calm Calm - N/A   Clear
7:53 AM 26.1 °F - 24.1 °F 92% 30.28 in 6.0 mi Calm Calm - N/A   Clear
8:53 AM 32.0 °F - 28.9 °F 88% 30.29 in 6.0 mi Calm Calm - N/A   Clear
9:53 AM 39.0 °F 36.8 °F 33.1 °F 79% 30.28 in 7.0 mi SW 3.5 mph - N/A   Clear
10:53 AM 46.9 °F - 35.1 °F 63% 30.27 in 9.0 mi SSW 4.6 mph - N/A   Clear
11:53 AM 51.1 °F - 36.0 °F 56% 30.25 in 10.0 mi West 5.8 mph - N/A   Clear
12:53 PM 53.1 °F - 36.0 °F 52% 30.22 in 10.0 mi WSW 5.8 mph - N/A   Clear
1:53 PM 55.0 °F - 36.0 °F 49% 30.20 in 10.0 mi SSW 6.9 mph - N/A   Clear
2:53 PM 55.9 °F - 35.1 °F 45% 30.19 in 10.0 mi SSW 3.5 mph - N/A   Clear
3:53 PM 55.9 °F - 34.0 °F 44% 30.19 in 10.0 mi SW 6.9 mph - N/A   Clear
4:53 PM 53.1 °F - 34.0 °F 48% 30.18 in 10.0 mi SSW 3.5 mph - N/A   Clear
5:53 PM 51.1 °F - 33.1 °F 50% 30.19 in 10.0 mi South 4.6 mph - N/A   Clear
6:53 PM 48.9 °F - 33.1 °F 54% 30.20 in 10.0 mi South 4.6 mph - N/A   Clear
7:53 PM 44.1 °F - 33.1 °F 65% 30.20 in 10.0 mi Calm Calm - N/A   Clear
8:53 PM 39.0 °F 36.8 °F 32.0 °F 76% 30.20 in 10.0 mi SSE 3.5 mph - N/A   Clear
9:53 PM 41.0 °F - 32.0 °F 70% 30.20 in 10.0 mi Calm Calm - N/A   Clear
10:53 PM 41.0 °F - 32.0 °F 70% 30.19 in 10.0 mi Calm Calm - N/A   Clear
11:53 PM 37.0 °F - 32.0 °F 82% 30.18 in 10.0 mi Calm Calm - N/A   Clear